Tous vos exploits sur  Logo Planète Marathon le site 100% Marathon

Antarctica Marathon              Donnez votre avis sur l'édition 2018

Le 16/03/2018 - 19ème édition - 112 arrivants.                                                       

Clmt. Temps Nom Prénom Club Organisme Catégorie
1 3:07:20 Lubas Todd M40- (+)
2 3:22:19 Bonicalzi Bruno M40- (+)
3 3:35:31 Botti John M40- (+)
4 3:58:01 Van Ackere Gerland M40- (+)
5 3:58:34 Gordon Michael M50-59 (+)
6 3:58:52 Campbell Wendi F40-49 (+)
7 4:01:01 Brown Ivan M40-49 (+)
8 4:01:28 Grove Matthew M40- (+)
9 4:02:21 Williams Kory M40-49 (+)
10 4:07:48 Venturi Sharon F40-49 (+)
11 4:10:53 Bultema Paul M40-49 (+)
12 4:11:18 Fawley Nancy F50-59 (+)
13 4:12:36 Lambdin Kate F40- (+)
14 4:16:36 Gibson Iii Conrad M40- (+)
15 4:20:18 Gewirz Katrina F50-59 (+)
16 4:21:11 Vlotman David M40-49 (+)
17 4:22:33 Loughlin Julia F40- (+)
18 4:23:35 Flowerdew Rupert M40- (+)
19 4:23:49 Bennett John M40- (+)
20 4:25:59 Monaco Danilo M50-59 (+)
21 4:26:11 Nowicki Michal M40- (+)
22 4:27:38 Bakos Renato M40-49 (+)
23 4:29:16 Shao Xin F40-49 (+)
24 4:29:53 Wigger Ulrike F40- (+)
25 4:44:06 Yang Mei F40-49 (+)
26 4:46:29 Walsh Sean M40- (+)
27 4:50:16 Paige Amy F40-49 (+)
28 4:52:41 Lutz Jr James M50-59 (+)
29 4:53:38 Tatum Danielle F40- (+)
30 4:53:57 Godfrey Nathan M40-49 (+)
31 4:54:03 White Andrew M40- (+)
32 4:57:17 Jones Simon M50-59 (+)
33 4:57:17 Lantzke David M50-59 (+)
34 4:57:17 Schierenbeck Andreas M50-59 (+)
35 4:57:24 Bushard Joshua M40-49 (+)
36 4:57:35 Higgins Sean M40-49 (+)
37 5:00:29 Allin-hall Sherri Lynn F40-49 (+)
38 5:01:42 Rivadeneyra Carol F50-59 (+)
39 5:04:29 Roberts Erica F40- (+)
40 5:04:50 Pham Tony M40- (+)
41 5:05:04 Duggan Jeremy M40- (+)
42 5:08:06 D'souza. Avinash Albert M40- (+)
43 5:09:23 Whalen Thomas M40-49 (+)
44 5:11:00 Roper Jessica F40- (+)
45 5:11:15 Davis Jeremy M40-49 (+)
46 5:12:22 Pai Ram Kumar M50-59 (+)
47 5:15:56 Betancourt Orlando M40-49 (+)
48 5:16:40 Braithwaite Dexter M40- (+)
49 5:16:48 Mirkow Alejandro M40-49 (+)
50 5:19:18 Wilhelm Susanne F50-59 (+)
51 5:21:01 Candido Martino M60-69 (+)
52 5:23:17 Denys Douglas M40-49 (+)
53 5:23:17 Morgan Michael M50-59 (+)
54 5:23:55 Hight Landon M40- (+)
55 5:25:29 Stjepic Douglas M40-49 (+)
56 5:27:29 Kowalczyk Justyna F40-49 (+)
57 5:27:58 Powers Mary F50-59 (+)
58 5:29:26 Hu Jia F50-59 (+)
59 5:29:29 Ugarte Ian M40-49 (+)
60 5:31:05 D'souza Aloysius M40- (+)
61 5:31:19 Bastion Pauline F60-69 (+)
62 5:31:19 Grice James M60-69 (+)
63 5:31:31 Westhoff Pamela L. F50-59 (+)
64 5:32:00 Hunter Ryan M40-49 (+)
65 5:32:23 Hallatt Peter M40- (+)
66 5:34:05 Davila Luis M50-59 (+)
67 5:34:11 Bara Dimitra F40- (+)
68 5:35:39 Imperiali Rebecca F50-59 (+)
69 5:36:45 Hernandez Daniel M50-59 (+)
70 5:36:47 Harley Jennifer F40-49 (+)
71 5:38:29 Soucie Teresa F60-69 (+)
72 5:41:23 Calaon Fabio M40- (+)
73 5:41:56 Martin David M50-59 (+)
74 5:42:55 Toczylowski James M50-59 (+)
75 5:46:17 Hunter Barbara K. F50-59 (+)
76 5:47:32 Casey Patricia F50-59 (+)
77 5:48:42 Melnyk Chrysia F40-49 (+)
78 5:49:01 Pegram Cecil M70+ (+)
79 5:49:54 Szeto Jenney F40- (+)
80 5:53:45 Cotuna Sandra F40- (+)
81 5:54:24 So Kwan Hang M40- (+)
82 5:55:04 Tran Chan D. M50-59 (+)
83 5:57:57 Cadby Hannah F40-49 (+)
84 5:58:38 Bush Sheri F50-59 (+)
85 5:59:39 Kahwaty Henry M50-59 (+)
86 5:59:47 Kuehn Whynde F40-49 (+)
87 6:01:52 Tonks Brittany F40- (+)
88 6:03:14 Snyder Timothy M40- (+)
89 6:05:19 Weber David M50-59 (+)
90 6:06:01 Nazmi Ansary Newsha F40- (+)
91 6:06:41 Nodalo. Daniel M60-69 (+)
92 6:06:50 Griffin Gerald M50-59 (+)
93 6:07:55 Bowers Kellye Jo F40-49 (+)
94 6:09:30 Palao Martha F50-59 (+)
95 6:09:57 Maugle Randy M60-69 (+)
96 6:10:02 Stoner Elizabeth F40- (+)
97 6:10:05 Sites Madison F40- (+)
98 6:12:11 Snyder Jessica F40- (+)
99 6:12:12 Snyder Matthew M40- (+)
100 6:12:50 Bishop Cindy F50-59 (+)
101 6:13:22 Wright Ana F50-59 (+)
102 6:16:31 Mirjah Brieanne F40- (+)
103 6:16:31 Wallis Laura F40- (+)
104 6:18:05 Shull Jr. John Wesley M60-69 (+)
105 6:19:57 Bradley Colin M40-49 (+)
106 6:19:57 Forward Paul M50-59 (+)
107 6:20:24 Fowler Susan F60-69 (+)
108 6:22:38 Clarke George M50-59 (+)
109 6:29:24 Vargas Sean M40- (+)
110 6:31:46 Nguyen Han M40-49 (+)
111 6:40:39 Nasey Charlotte F60-69 (+)
112 7:15:20 Staniszewski Jacek M50-59 (+)